sat.trackr.live / text

‹ back to catalog

STARLINK-1598

NORAD 46160 · 2020-057AV

PAYLOAD ACTIVE UNKNOWN

§ Identity

Operator
Country
US
Launch date
2020-08-18
Launch site
AFETR
Launch vehicle
Mass (kg)
RCS (m²)

Purposes: comms

External: N2YO · Heavens-Above · Gunter

§ Orbital elements

Epoch: 2026-09-10T02:33:47.855232Z

Period
89.29 min
Inclination
53.0274°
Eccentricity
0.0007547
Mean motion
16.12764903 rev/d
Perigee alt
234.3 km
Apogee alt
244.3 km
Semi-major
6,617.4 km
B*
8.4923e-4
RAAN
86.0677°
Arg perigee
257.1450°
Mean anomaly
102.8742°
Rev number
33,682

§ Raw data

STARLINK-15981 46160U 20057AV  26253.10680388  .00984954  60856-3  84923-3 0  99992 46160  53.0274  86.0677 0007547 257.1450 102.8742 16.12764903336826

JSON: /api/v1/satellites/46160 · /tle

For live sub-satellite position, see the globe view (requires WebGL).

§ Visibility from observer

Set your observer location to see the next 7 days of passes ≥ 10°. The values pass through the URL so the page stays shareable.

No JS? Fill the form by hand. The geolocation button needs JavaScript.